Content
SEND FEEDBACK

Daily
Averages
Monthly
Summary
Germany

BERLIN, GERMANY


Home > Europe > Germany
Elevation: 157 feet     Latitude: 52 23N     Longitude: 013 31E

WEATHER
 
SELECT A DAY
Number of Records: 258,957;   Date Range: 7/3/96 - 10/21/14
 
SHARE

PRINT THIS DATA

[ ← Previous Day ]
WEATHER ALMANAC - JANUARY 3, 2013
[ Next Day → ]
[ °C ]   °F
Weather ElementAverageHighLow
Temperature44.7 °F50 °F (3:50 pm)39.2 °F (5:50 am)
Dewpoint41.5 °F48.2 °F (5:50 pm)35.6 °F (12:50 am)
Humidity88.6 %100 % (10:50 am)81 % (12:50 am)
Barometer30.18 in30.27 in (10:50 pm)30.12 in (6:50 am)
Wind Speed17.9 mph21.9 mph (12:20 pm)
Wind Gust32.2 mph (8:20 pm)
Weather ElementAverage
Visibility5.6 mi
Wind DirectionWSW (250.4 °)

Weather ElementTotal
Precipitation---
Heating Degree Days20.4 (Base 65)
Averaged from 47 records on January 3, 2013
WEATHER CONDITIONS BREAKOUT
WIND DIRECTION BREAKOUT
WEATHER BY HOUR - JANUARY 3, 2013
[ °C ]   °F
Local TimeTemperatureDewpointHumidityBarometerVisibilityWind DirectionWind SpeedGust SpeedPrecipitationEventsConditions
12:50 AM41.0 °F35.6 °F81 %30.24 in6.2 miSW (230°)13.8 mphMostly Cloudy
1:20 AM41.0 °F35.6 °F81 %30.24 in6.2 miSW (230°)12.7 mphMostly Cloudy
1:50 AM41.0 °F35.6 °F81 %30.24 in6.2 miSW (230°)15.0 mphMostly Cloudy
2:20 AM41.0 °F35.6 °F81 %30.24 in6.2 miSW (230°)13.8 mphMostly Cloudy
2:50 AM41.0 °F35.6 °F81 %30.24 in6.2 miSW (230°)13.8 mphRainLight Rain
3:20 AM41.0 °F35.6 °F81 %30.21 in6.2 miSW (230°)17.3 mphMostly Cloudy
3:50 AM41.0 °F35.6 °F81 %30.21 in6.2 miSW (230°)16.1 mphRainLight Rain
4:20 AM41.0 °F35.6 °F81 %30.18 in6.2 miSW (220°)15.0 mphRainLight Rain
4:50 AM41.0 °F35.6 °F81 %30.18 in6.2 miSW (220°)16.1 mphRainLight Rain
5:20 AM41.0 °F35.6 °F81 %30.18 in6.2 miSW (220°)16.1 mphRainRain
5:50 AM39.2 °F35.6 °F87 %30.15 in6.2 miSW (220°)17.3 mphRainLight Rain
6:20 AM39.2 °F37.4 °F93 %30.15 in6.2 miSW (230°)17.3 mphRainRain
6:50 AM39.2 °F37.4 °F93 %30.12 in4.3 miSW (220°)19.6 mphRainRain
7:20 AM39.2 °F37.4 °F93 %30.12 in4.3 miSW (230°)17.3 mphRainRain
7:50 AM39.2 °F37.4 °F93 %30.15 in4.3 miSW (230°)17.3 mphRainRain
8:20 AM41.0 °F39.2 °F93 %30.15 inSW (230°)17.3 mphDrizzle
8:50 AM41.0 °F39.2 °F93 %30.12 in2.2 miWSW (240°)17.3 mphDrizzle
9:20 AM41.0 °F39.2 °F93 %30.12 in3.7 miWSW (240°)19.6 mphLight Drizzle
9:50 AM42.8 °F41.0 °F93 %30.12 in6.2 miWSW (250°)16.1 mphMostly Cloudy
10:20 AM42.8 °F41.0 °F93 %30.12 in3.7 miWSW (240°)18.4 mphLight Drizzle
10:50 AM42.8 °F42.8 °F100 %30.12 in3.1 miWSW (250°)17.3 mphLight Drizzle
11:20 AM44.6 °F42.8 °F93 %30.12 in3.7 miWSW (250°)17.3 mphLight Drizzle
11:50 AM44.6 °F42.8 °F93 %30.12 in5.6 miWSW (240°)16.1 mphLight Drizzle
12:20 PM46.4 °F44.6 °F93 %30.12 inWest (260°)21.9 mphLight Drizzle
12:50 PM46.4 °F44.6 °F93 %30.12 in3.1 miWest (260°)21.9 mphLight Drizzle
1:20 PM46.4 °F44.6 °F93 %30.12 in6.2 miWest (260°)21.9 mphMostly Cloudy
1:50 PM48.2 °F46.4 °F93 %30.15 in5.6 miWest (260°)20.7 mphLight Drizzle
2:20 PM48.2 °F46.4 °F93 %30.15 in5.6 miWest (260°)19.6 mphLight Drizzle
2:50 PM48.2 °F46.4 °F93 %30.15 in6.2 miWest (260°)18.4 mphMostly Cloudy
3:20 PM48.2 °F46.4 °F93 %30.15 in6.2 miWest (260°)18.4 mphLight Drizzle
3:50 PM50.0 °F46.4 °F87 %30.15 in6.2 miWSW (250°)19.6 mphLight Drizzle
4:20 PM48.2 °F46.4 °F93 %30.18 in5.0 miWest (260°)18.4 mphLight Drizzle
4:50 PM48.2 °F46.4 °F93 %30.18 in5.0 miWSW (250°)18.4 mphLight Drizzle
5:20 PM50.0 °F46.4 °F87 %30.18 in6.2 miWSW (250°)18.4 mphMostly Cloudy
5:50 PM50.0 °F48.2 °F94 %30.18 in6.2 miWest (260°)18.4 mphLight Drizzle
6:20 PM50.0 °F48.2 °F94 %30.18 in6.2 miWest (260°)19.6 mphLight Drizzle
6:50 PM50.0 °F48.2 °F94 %30.18 in6.2 miWest (270°)21.9 mphRainLight Rain
7:20 PM50.0 °F48.2 °F94 %30.18 in6.2 miWest (270°)20.7 mphRainLight Rain
7:50 PM50.0 °F46.4 °F87 %30.21 in6.2 miWNW (290°)19.6 mphMostly Cloudy
8:20 PM48.2 °F44.6 °F87 %30.21 in6.2 miWNW (290°)18.4 mph32.2 mphMostly Cloudy
8:50 PM48.2 °F42.8 °F82 %30.21 in6.2 miWest (280°)17.3 mphScattered Clouds
9:20 PM48.2 °F42.8 °F82 %30.24 in6.2 miWest (280°)17.3 mphScattered Clouds
9:50 PM46.4 °F42.8 °F87 %30.24 in6.2 miWest (280°)18.4 mphScattered Clouds
10:20 PM46.4 °F42.8 °F87 %30.24 in6.2 miWest (280°)19.6 mphScattered Clouds
10:50 PM46.4 °F41.0 °F81 %30.27 in6.2 miWest (280°)21.9 mphScattered Clouds
11:20 PM46.4 °F41.0 °F81 %30.27 in6.2 miWest (280°)16.1 mphMostly Cloudy
11:50 PM46.4 °F41.0 °F81 %30.27 in6.2 miWest (280°)17.3 mphMostly Cloudy
Hourly data recorded from EDDB, located miles away from Berlin, Germany







STORIES FROM OUR PARTNERS